Terminal Aerodrome Forecast
Issued by NWS Sterling, VA

Current Version | Previous Version | Text Only | Print | Product List | Glossary Off
Versions: 1 2 3 4 5 6 7 8 9 10 11 12 13 14 15 16 17 18 19 20

000
FTUS41 KLWX 260300 AAB
TAFMRB
TAF AMD
KMRB 260318Z 2603/2624 36006KT 3SM -SNRA OVC015
     FM260800 06007KT 2SM -SN OVC008
     FM261400 06007KT 1/2SM SN OVC008
     FM262300 02007KT 3/4SM -SN OVC010=

USA.gov is the U.S. government's official web portal to all federal, state and local government web resources and services.